Location: Cedar Ridge
(38.0658°N, 120.2769°W)
Time: 21:59:45
(UTC+00:00)

Cosmos 1939 Rocket - Pass Details

Date: 10 September 2024
Orbit: 509 x 550 km, 97.5° (Epoch: 12 October)

Event Time Altitude Azimuth Distance (km) Brightness Sun altitude
Rises 12:47:07 0° 8° (N) 2,735 6.7 -10.9°
Reaches altitude 10° 12:49:16 10° 5° (N) 1,839 5.7 -10.5°
Maximum altitude 12:53:12 62° 285° (WNW) 627 2.8 -9.7°
Drops below altitude 10° 12:57:07 10° 204° (SSW) 1,825 5.1 -9.0°
Sets 12:59:14 0° 201° (SSW) 2,712 6.0 -8.6°
